Weather History for Livingston, MT

Change the Weather History Date:

Wednesday, January 16, 2013

  Actual Average Record
Temperature  
Mean Temperature 34 °F 27 °F  
Max Temperature 42 °F 37 °F 59 °F (1974)
Min Temperature 27 °F 17 °F -17 °F (1954)
Degree Days  
Heating Degree Days 30 38  
Month to date heating degree days 612  
Since 1 July heating degree days 3777  
Moisture  
Dew Point 14 °F    
Average Humidity 40    
Maximum Humidity 53    
Minimum Humidity 35    
Precipitation  
Precipitation 0.00 in 0.02 in 0.31 in (1995)
Month to date precipitation 0.26  
Year to date precipitation 0.26  
Sea Level Pressure  
Sea Level Pressure 30.34 in    
Wind  
Wind Speed 31 mph (SW)    
Max Wind Speed 39 mph    
Max Gust Speed 60 mph    
Visibility 10 miles    
Events      
T = Trace of Precipitation, MM = Missing Value Source: NWS Daily Summary

Daily Weather History Graph

Daily Weather History Graph

Search for Another Location

Airport:

Trip Planner

Search our weather history database for the weather conditions in past years. The results will help you decide how hot, cold, wet, or windy it might be!

Date:

Astronomy

Jan. 16, 2013 Rise Set
Actual Time 7:57 AM MST 5:05 PM MST
Civil Twilight 7:24 AM MST 5:39 PM MST
Nautical Twilight 6:47 AM MST 6:15 PM MST
Astronomical Twilight 6:12 AM MST 6:51 PM MST
Moon 10:16 AM MST (1/16) 11:22 PM MST (1/16)
Length of Visible Light 10h 14m
Length of Day
9h 08m
Waxing Crescent, 29% of the Moon is Illuminated
Jan 16
Waxing Crescent
Jan 18
First Quarter
Jan 26
Full
Feb 3
Last Quarter
Feb 10
New

Hourly Weather History & Observations

Time (MST) Temp. Windchill Dew Point Humidity Pressure Visibility Wind Dir Wind Speed Gust Speed Precip Events Conditions
1:53 AM 27.0 °F 10.5 °F 12.0 °F 53% 30.36 in 10.0 mi SW 31.1 mph 46.0 mph N/A   Clear
2:53 AM 28.9 °F 12.1 °F 12.0 °F 49% 30.35 in 10.0 mi SW 36.8 mph 59.8 mph N/A   Clear
3:53 AM 32.0 °F 16.5 °F 12.0 °F 44% 30.32 in 10.0 mi SW 35.7 mph 50.6 mph N/A   Clear
4:53 AM 30.9 °F 14.5 °F 10.9 °F 43% 30.32 in 10.0 mi SW 39.1 mph 46.0 mph N/A   Clear
5:53 AM 34.0 °F 19.9 °F 12.0 °F 40% 30.31 in 10.0 mi SW 32.2 mph 42.6 mph N/A   Clear
6:53 AM 34.0 °F 20.1 °F 12.0 °F 40% 30.33 in 10.0 mi SW 31.1 mph 39.1 mph N/A   Clear
7:53 AM 35.1 °F 22.2 °F 10.9 °F 37% 30.33 in 10.0 mi SW 27.6 mph 47.2 mph N/A   Clear
8:53 AM 35.1 °F 22.7 °F 12.0 °F 39% 30.35 in 10.0 mi SW 25.3 mph 38.0 mph N/A   Clear
9:53 AM 37.0 °F 24.9 °F 12.0 °F 36% 30.35 in 10.0 mi SW 27.6 mph 39.1 mph N/A   Clear
10:53 AM 37.9 °F 25.9 °F 12.9 °F 36% 30.35 in 10.0 mi SW 28.8 mph 38.0 mph N/A   Clear
11:53 AM 39.9 °F 28.4 °F 14.0 °F 35% 30.30 in 10.0 mi SW 29.9 mph 36.8 mph N/A   Clear
1:53 PM 41.0 °F 30.2 °F 15.1 °F 35% 30.29 in 10.0 mi SW 27.6 mph 36.8 mph N/A   Clear
2:53 PM 41.0 °F 30.0 °F 15.1 °F 35% 30.32 in 10.0 mi SW 28.8 mph 36.8 mph N/A   Clear
3:53 PM 42.1 °F 32.1 °F 16.0 °F 35% 30.32 in 10.0 mi SW 25.3 mph - N/A   Clear
4:53 PM 39.0 °F 27.6 °F 16.0 °F 39% 30.35 in 10.0 mi SW 27.6 mph 36.8 mph N/A   Clear
5:53 PM 39.0 °F 28.3 °F 15.1 °F 38% 30.36 in 10.0 mi SW 24.2 mph - N/A   Clear
6:53 PM 39.0 °F 28.3 °F 16.0 °F 39% 30.36 in 10.0 mi WSW 24.2 mph 29.9 mph N/A   Clear
7:53 PM 37.0 °F 24.5 °F 16.0 °F 42% 30.38 in 10.0 mi WSW 29.9 mph 34.5 mph N/A   Clear
8:53 PM 37.0 °F 23.9 °F 16.0 °F 42% 30.37 in 10.0 mi WSW 33.4 mph 40.3 mph N/A   Clear
9:53 PM 37.9 °F 25.7 °F 16.0 °F 41% 30.36 in 10.0 mi WSW 29.9 mph 38.0 mph N/A   Clear
10:53 PM 37.0 °F 24.7 °F 16.0 °F 42% 30.38 in 10.0 mi WSW 28.8 mph 34.5 mph N/A   Clear
11:53 PM 37.0 °F 25.6 °F 15.1 °F 41% 30.38 in 10.0 mi WSW 24.2 mph 34.5 mph N/A   Clear